Other Surface Observations
Issued by NWS Charleston, SC

Home | Current Version | Previous Version | Text Only | Print | Product List | Glossary On
Versions: 1 2 3 4 5 6 7 8 9 10 11 12 13 14 15 16 17 18 19 20 21 22 23 24 25 26 27 28 29 30 31 32 33 34 35 36 37 38 39 40 41 42 43 44 45 46 47 48 49 50
000
SXUS52 KCHS 262227
OSOCHS

MARINE OBSERVATIONS
NATIONAL WEATHER SERVICE CHARLESTON SC
600 PM EDT SUN APR 26 2015

...DOWNTOWN CHARLESTON AND HARBOR...

CITY           SKY/WX    TMP DP  RH WIND       PRES   REMARKS
WATERFRONT PRK   N/A     86 N/A N/A W12G20      N/A
FORT JOHNSON   NOT AVBL

...LAKE MOULTRIE...

CITY           SKY/WX    TMP DP  RH WIND       PRES   REMARKS
PINOPOLIS      NOT AVBL

...LAKE AND SUPPLEMENTAL COASTAL OBSERVATIONS...

STATION/POSITION TIME  TEMP    WIND        PRES    WAVE   SWELL
                       AIR SEA DIR/SP/G            HT/PER HT/PER/DIR
                 (UTC) (F)     (DEG/KT/KT) (MB)    (FT/S) (FT/S/D)
FORT PULASKI     2100   85 70  260/ 15/ 19 1003.1S
SAPELO ISLAND    2200   87     270/ 14     1003.0S
UPR LAKE MARION  NOT AVBL
WINYAH BAY       2100   67      70/ 15     1002.0
LAKE MURRAY      2200   63      30/  6/ 10 1003.4R
ACE BASIN NERRS  NOT AVBL


...C-MAN AND BUOY OBSERVATIONS...

STATION/POSITION TIME  TEMP    WIND        PRES    WAVE   SWELL
                       AIR SEA DIR/SP/G            HT/PER HT/PER/DIR
                 (UTC) (F)     (DEG/KT/KT) (MB)    (FT/S) (FT/S/D)
BUOY 41004       2150   74 72  220/ 16/ 17 1001.2F   5/ 6   2/11
BUOY 41008       2150   80 73  250/ 10/ 14 1003.5F   2/ 5   2/200/12
FOLLY BEACH CMAN 2200   74     220/ 12/ 16 1002.0R
CAPERS NS BUOY   2108   73     230/ 16/ 19 1001.5F
FRIPP NS BUOY    2100   79     360/ 12/ 12 1001.8F
5E ST. MARYS GA  2121      71                N/A     1/13


STATION/POSITION TIME  TEMP    WIND        PRES    WAVE   SWELL
                       AIR SEA DIR/SP/G            HT/PER HT/PER/DIR
                 (UTC) (F)     (DEG/KT/KT) (MB)    (FT/S) (FT/S/D)
FRYING PAN BUOY  2150   63 71   40/ 14/ 17 1004.3R   5/ 8   3/200/ 8
BUOY 41025       2150   55 77  360/ 21/ 25 1003.6R   8/10
CAPE LOOKOUT NC  2200   54     360/ 12/ 15 1004.6R
BUOY 41002       2150   72 71  300/ 14/ 17 1002.6R   8/ 8   7/230/ 8
BUOY 41010       2120   80 79  260/ 12/ 14 1006.5F
ST AUGUSTINE FL  2200   86 68  250/ 14/ 17 1005.4R

$$



USA.gov is the U.S. government's official web portal to all federal, state and local government web resources and services.